VA3DLF Weather Reports


time (UTC)temp
C
wind
direction
speed
KPH
gust
KPH
rain 1hr
cm
rain 24hr
cm
rain mn
cm
humidity
%
barometer
mb
20180820105834 16 91 3.2 1.6 0.00 0.00 0.00
20180820105335 16 94 3.2 3.2 0.00 0.00 0.00
20180820104833 16 107 1.6 3.2 0.00 0.00 0.00
20180820104333 16 76 3.2 3.2 0.00 0.00 0.00
20180820103834 16 98 1.6 3.2 0.00 0.00 0.00
20180820102832 17 105 4.8 1.6 0.00 0.00 0.00
20180820102333 16 91 3.2 6.4 0.00 0.00 0.00
20180820101331 16 156 3.2 4.8 0.00 0.00 0.00
20180820100832 16 146 3.2 3.2 0.00 0.00 0.00
20180820095331 16 100 3.2 3.2 0.00 0.00 0.00
20180820094329 16 86 0.0 0.0 0.00 0.00 0.00
20180820093829 16 86 0.0 0.0 0.00 0.00 0.00
20180820093326 16 90 3.2 1.6 0.00 0.00 0.00
20180820092327 16 75 1.6 1.6 0.00 0.00 0.00
20180820090902 16 69 1.6 1.6 0.00 0.00 0.00
20180820090822 16 69 1.6 1.6 0.00 0.00 0.00
20180820090320 16 72 0.0 0.0 0.00 0.00 0.00
20180820085820 16 115 0.0 3.2 0.00 0.00 0.00
20180820085321 16 77 1.6 0.0 0.00 0.00 0.00
20180820084819 16 76 0.0 0.0 0.00 0.00 0.00
20180820084320 16 83 0.0 0.0 0.00 0.00 0.00
20180820083820 16 104 1.6 0.0 0.00 0.00 0.00
20180820083318 16 113 0.0 0.0 0.00 0.00 0.00
20180820082319 16 98 1.6 3.2 0.00 0.00 0.00
20180820081817 16 91 1.6 4.8 0.00 0.00 0.00
20180820081318 16 114 1.6 3.2 0.00 0.00 0.00
20180820080818 16 101 0.0 0.0 0.00 0.00 0.00
20180820075817 16 115 1.6 3.2 0.00 0.00 0.00
20180820074316 16 79 0.0 0.0 0.00 0.00 0.00
20180820073816 16 79 0.0 0.0 0.00 0.00 0.00
20180820073314 16 79 0.0 0.0 0.00 0.00 0.00
20180820072814 16 79 0.0 0.0 0.00 0.00 0.00
20180820072315 17 98 1.6 1.6 0.00 0.00 0.00
20180820071811 17 83 0.0 0.0 0.00 0.00 0.00
20180820071311 17 83 0.0 0.0 0.00 0.00 0.00
20180820070307 17 100 0.0 0.0 0.00 0.00 0.00
20180820065808 17 100 0.0 0.0 0.00 0.00 0.00
20180820064806 17 100 1.6 0.0 0.00 0.00 0.00
20180820064307 17 75 0.0 0.0 0.00 0.00 0.00
20180820063807 17 75 0.0 0.0 0.00 0.00 0.00
20180820063305 17 66 0.0 0.0 0.00 0.00 0.00
20180820062805 17 45 3.2 3.2 0.00 0.00 0.00
20180820062306 17 91 0.0 0.0 0.00 0.00 0.00
20180820061805 17 94 3.2 0.0 0.00 0.00 0.00
20180820061304 17 49 3.2 3.2 0.00 0.00 0.00
20180820060805 17 75 3.2 4.8 0.00 0.00 0.00
20180820060300 17 44 3.2 4.8 0.00 0.00 0.00
20180820055300 17 30 1.6 4.8 0.00 0.00 0.00
20180820054257 17 28 4.8 4.8 0.00 0.00 0.00
20180820053758 17 56 0.0 0.0 0.00 0.00 0.00
20180820053254 17 45 4.8 3.2 0.00 0.00 0.00
20180820052755 17 28 4.8 4.8 0.00 0.00 0.00
20180820052256 17 21 4.8 4.8 0.00 0.00 0.00
20180820051752 17 39 0.0 3.2 0.00 0.00 0.00
20180820051252 17 63 0.0 0.0 0.00 0.00 0.00
20180820050753 17 30 4.8 4.8 0.00 0.00 0.00
20180820050251 17 82 0.0 0.0 0.00 0.00 0.00
20180820045252 17 48 0.0 4.8 0.00 0.00 0.00
20180820044749 17 66 1.6 1.6 0.00 0.00 0.00
20180820043750 17 30 0.0 4.8 0.00 0.00 0.00
20180820042748 17 35 0.0 0.0 0.00 0.00 0.00
20180820042249 17 35 0.0 0.0 0.00 0.00 0.00
20180820041746 17 35 0.0 0.0 0.00 0.00 0.00
20180820040748 17 35 0.0 3.2 0.00 0.00 0.00
20180820035746 17 96 0.0 0.0 0.00 0.00 0.00
20180820035247 17 96 0.0 0.0 0.00 0.00 0.00
20180820034744 18 96 0.0 0.0 0.00 0.00 0.00
20180820034245 18 96 0.0 0.0 0.00 0.00 0.00
20180820033745 18 96 0.0 0.0 0.00 0.00 0.00
20180820032744 18 96 0.0 0.0 0.00 0.00 0.00
20180820032244 18 96 0.0 0.0 0.00 0.00 0.00
20180820031742 18 96 0.0 0.0 0.00 0.00 0.00
20180820031242 18 96 0.0 0.0 0.00 0.00 0.00
20180820030742 18 96 0.0 0.0 0.00 0.00 0.00
20180820030238 18 96 0.0 0.0 0.00 0.00 0.00
20180820025739 18 96 0.0 0.0 0.00 0.00 0.00
20180820024237 19 96 0.0 0.0 0.00 0.00 0.00
20180820023738 19 96 0.0 0.0 0.00 0.00 0.00
20180820023236 20 96 0.0 0.0 0.00 0.00 0.00
20180820022737 19 96 0.0 0.0 0.00 0.00 0.00
20180820022237 20 96 0.0 0.0 0.00 0.00 0.00
20180820021735 20 96 0.0 0.0 0.00 0.00 0.00
20180820021236 20 96 0.0 0.0 0.00 0.00 0.00
20180820020232 20 96 0.0 0.0 0.00 0.00 0.00
20180820015234 21 96 0.0 0.0 0.00 0.00 0.00
20180820014232 21 96 0.0 0.0 0.00 0.00 0.00
20180820013733 21 96 0.0 0.0 0.00 0.00 0.00
20180820011729 22 96 0.0 0.0 0.00 0.00 0.00
20180820010730 22 96 0.0 0.0 0.00 0.00 0.00
20180820010227 22 96 0.0 0.0 0.00 0.00 0.00
20180820005728 22 96 0.0 0.0 0.00 0.00 0.00
20180820004726 23 96 0.0 0.0 0.00 0.00 0.00
20180820003727 23 96 0.0 0.0 0.00 0.00 0.00
20180820002725 23 96 0.0 0.0 0.00 0.00 0.00
20180820002225 23 96 0.0 0.0 0.00 0.00 0.00
20180820001723 24 96 0.0 0.0 0.00 0.00 0.00
20180820000724 24 96 0.0 0.0 0.00 0.00 0.00
20180820000220 25 141 0.0 1.6 0.00 0.00 0.00
20180819235721 25 131 0.0 0.0 0.00 0.00 0.00
20180819235221 25 131 0.0 0.0 0.00 0.00 0.00
20180819234218 25 131 0.0 1.6 0.00 0.00 0.00
20180819233718 26 184 0.0 0.0 0.00 0.00 0.00
20180819233216 26 184 0.0 0.0 0.00 0.00 0.00
20180819232717 26 184 0.0 0.0 0.00 0.00 0.00
20180819232217 26 184 1.6 0.0 0.00 0.00 0.00
20180819231715 26 124 0.0 0.0 0.00 0.00 0.00
20180819230716 26 243 3.2 4.8 0.00 0.00 0.00
20180819230216 26 248 4.8 6.4 0.00 0.00 0.00
20180819224713 27 253 4.8 3.2 0.00 0.00 0.00
20180819224213 27 249 4.8 4.8 0.00 0.00 0.00
20180819223714 27 239 6.4 4.8 0.00 0.00 0.00
20180819222710 27 205 4.8 1.6 0.00 0.00 0.00
20180819222211 27 232 4.8 4.8 0.00 0.00 0.00
20180819221708 27 105 0.0 0.0 0.00 0.00 0.00
20180819221209 27 149 4.8 1.6 0.00 0.00 0.00
20180819220708 27 179 3.2 3.2 0.00 0.00 0.00
20180819220204 27 190 1.6 6.4 0.00 0.00 0.00
20180819215705 27 143 3.2 1.6 0.00 0.00 0.00
20180819215205 27 183 3.2 3.2 0.00 0.00 0.00
20180819214703 27 111 3.2 3.2 0.00 0.00 0.00
20180819214204 27 142 4.8 4.8 0.00 0.00 0.00
20180819213704 27 167 4.8 8.0 0.00 0.00 0.00
20180819212203 27 219 0.0 4.8 0.00 0.00 0.00
20180819210703 26 136 6.4 8.0 0.00 0.00 0.00
20180819205701 27 179 4.8 8.0 0.00 0.00 0.00
20180819205202 27 215 6.4 9.7 0.00 0.00 0.00
20180819204659 27 212 4.8 6.4 0.00 0.00 0.00
20180819203701 27 131 4.8 8.0 0.00 0.00 0.00
20180819203158 27 232 6.4 6.4 0.00 0.00 0.00
20180819202200 27 155 6.4 3.2 0.00 0.00 0.00
20180819201158 26 118 4.8 3.2 0.00 0.00 0.00
20180819195657 26 149 9.7 9.7 0.00 0.00 0.00
20180819195157 26 231 4.8 11.3 0.00 0.00 0.00
20180819194655 26 159 8.0 6.4 0.00 0.00 0.00
20180819194156 26 201 9.7 8.0 0.00 0.00 0.00
20180819192655 26 200 8.0 8.0 0.00 0.00 0.00
20180819191154 26 187 9.7 6.4 0.00 0.00 0.00
20180819190654 26 146 6.4 1.6 0.00 0.00 0.00
20180819190152 26 146 6.4 8.0 0.00 0.00 0.00
20180819185153 26 210 6.4 0.0 0.00 0.00 0.00
20180819183652 26 105 8.0 9.7 0.00 0.00 0.00
20180819182650 26 174 12.9 9.7 0.00 0.00 0.00
20180819182149 26 160 8.0 8.0 0.00 0.00 0.00
20180819180646 26 187 8.0 8.0 0.00 0.00 0.00
20180819175643 26 166 8.0 9.7 0.00 0.00 0.00
20180819175142 26 141 4.8 4.8 0.00 0.00 0.00
20180819174639 26 155 9.7 11.3 0.00 0.00 0.00
20180819174140 26 148 6.4 4.8 0.00 0.00 0.00
20180819173640 26 121 8.0 12.9 0.00 0.00 0.00
20180819173138 25 115 9.7 6.4 0.00 0.00 0.00
20180819172638 25 211 12.9 9.7 0.00 0.00 0.00
20180819171637 25 176 12.9 17.7 0.00 0.00 0.00
20180819170636 25 139 9.7 9.7 0.00 0.00 0.00
20180819165634 25 135 11.3 9.7 0.00 0.00 0.00
20180819164131 25 138 6.4 6.4 0.00 0.00 0.00
20180819163632 25 158 11.3 8.0 0.00 0.00 0.00
20180819162629 24 183 4.8 1.6 0.00 0.00 0.00
20180819162130 24 145 4.8 6.4 0.00 0.00 0.00
20180819161627 24 148 11.3 3.2 0.00 0.00 0.00
20180819161127 23 65 3.2 3.2 0.00 0.00 0.00
20180819160628 23 72 9.7 6.4 0.00 0.00 0.00
20180819155627 24 121 9.7 4.8 0.00 0.00 0.00
20180819155127 24 91 6.4 12.9 0.00 0.00 0.00
20180819154624 23 69 4.8 6.4 0.00 0.00 0.00
20180819154125 23 152 6.4 11.3 0.00 0.00 0.00
20180819153626 23 165 8.0 4.8 0.00 0.00 0.00
20180819152623 23 167 8.0 11.3 0.00 0.00 0.00
20180819152123 23 98 9.7 8.0 0.00 0.00 0.00
20180819151620 23 91 6.4 1.6 0.00 0.00 0.00
20180819150621 22 110 8.0 11.3 0.00 0.00 0.00
20180819145620 23 200 6.4 12.9 0.00 0.00 0.00
20180819144618 22 136 11.3 9.7 0.00 0.00 0.00
20180819144119 22 139 11.3 11.3 0.00 0.00 0.00
20180819143620 22 75 8.0 11.3 0.00 0.00 0.00
20180819142115 22 79 8.0 16.1 0.00 0.00 0.00
20180819140613 22 155 11.3 14.5 0.00 0.00 0.00
20180819140111 21 139 11.3 9.7 0.00 0.00 0.00
20180819135610 21 66 8.0 9.7 0.00 0.00 0.00
20180819135110 21 134 11.3 9.7 0.00 0.00 0.00
20180819134608 21 135 9.7 9.7 0.00 0.00 0.00
20180819134109 21 96 8.0 8.0 0.00 0.00 0.00
20180819133609 21 55 8.0 11.3 0.00 0.00 0.00
20180819131605 20 111 4.8 8.0 0.00 0.00 0.00
20180819131105 20 60 6.4 4.8 0.00 0.00 0.00
20180819121059 17 30 6.4 8.0 0.00 0.00 0.00
20180819120600 17 63 4.8 3.2 0.00 0.00 0.00
20180819115558 17 82 6.4 8.0 0.00 0.00 0.00
20180819113055 16 39 8.0 8.0 0.00 0.00 0.00
20180819112555 16 45 8.0 8.0 0.00 0.00 0.00
20180819111553 16 18 8.0 8.0 0.00 0.00 0.00
20180819110554 15 31 8.0 8.0 0.00 0.00 0.00